Location: Songkhla
(7.2000°N, 100.6000°E)
Time: 14:54:48
(UTC+07:00)

ISS - Pass Details

Date: 15 May 2021
Orbit: 417 x 422 km, 51.6° (Epoch: 21 June)

Event Time Altitude Azimuth Distance (km) Brightness Sun altitude
Rises 19:04:01 0° 230° (SW) 2,347 0.5 -9.3°
Reaches altitude 10° 19:06:13 10° 239° (WSW) 1,484 -0.4 -9.9°
Maximum altitude 19:09:17 35° 307° (NW) 691 -1.9 -10.6°
Drops below altitude 10° 19:12:22 10° 14° (NNE) 1,483 -0.9 -11.3°
Sets 19:14:34 0° 24° (NNE) 2,345 0.0 -11.8°
